Location: Dob?e?
(49.9411°N, 15.1496°E)
Time: 12:38:02
(UTC+00:00)

DELFI C3 - Pass Details

Date: 26 October 2021
Orbit: 529 x 543 km, 97.4° (Epoch: 29 November)

Event Time Altitude Azimuth Distance (km) Brightness Sun altitude
Exits shadow 18:14:34 67° 272° (W) 579 ? -24.3°
Drops below altitude 10° 18:18:19 10° 342° (NNW) 1,790 ? -24.9°
Sets 18:20:27 0° 345° (NNW) 2,686 ? -25.2°
